Simultaneous Nadir Overpasses (SNOs) Predictions

Prediction of SNOs between LANDSAT-8 and METOP-B Satellite Orbit:

Table of predicted SNOs for the next 14.0 days since TLE Epoch: 10/26/2024
Index Date (LANDSAT-8) Time (LANDSAT-8) Lat,Lon (LANDSAT-8) SZA (LANDSAT-8 ) Date (METOP-B) Time (METOP-B) Lat,Lon (METOP-B) SZA (METOP-B ) Distance(km) Time Diff (sec)
1 10/28/2024 15:33:14 81.41, -8.25 97.70 10/28/2024 15:32:21 81.41, -8.06 97.69 3.18 53
2 10/28/2024 16:22:41 -81.41, 159.33 82.30 10/28/2024 16:23:02 -81.41, 159.18 82.31 2.45 21
3 10/31/2024 11:07:26 81.40, 57.90 98.57 10/31/2024 11:06:34 81.40, 57.70 98.53 3.33 52
4 10/31/2024 11:56:52 -81.41,-134.11 81.37 10/31/2024 11:57:13 -81.41,-134.23 81.38 2.08 21
5 11/03/2024 06:41:36 81.40, 124.37 99.46 11/03/2024 06:40:44 81.41, 124.49 99.45 2.19 52
6 11/03/2024 07:31:02 -81.42, -67.62 80.48 11/03/2024 07:31:24 -81.41, -67.81 80.50 3.22 22
7 11/06/2024 02:15:43 81.41,-168.84 100.35 11/06/2024 02:14:53 81.41,-168.88 100.32 0.92 50
8 11/06/2024 03:05:10 -81.41, -1.21 79.64 11/06/2024 03:05:33 -81.41, -1.17 79.63 0.75 23
9 11/08/2024 21:49:51 81.41,-102.51 101.14 11/08/2024 21:49:03 81.41,-102.42 101.13 1.49 48



Historial Predications of SNOs between LANDSAT-8 and METOP-B
